Time,TemperatureF,DewpointF,PressureIn,WindDirection,WindDirectionDegrees,WindSpeedMPH,WindSpeedGustMPH,Humidity,HourlyPrecipIn,Conditions,Clouds,dailyrainin,SoftwareType,DateUTC
2013-05-25 00:00:00,43.2,31.5,30.09,WSW,256,5.4,5.4,63,0.00,,---,0.00,VWS V14.01,2013-05-25 04:00:00,
2013-05-25 00:01:00,43.2,31.5,30.09,NNE,15,7.8,7.8,63,0.00,,---,0.00,VWS V14.01,2013-05-25 04:01:00,
2013-05-25 00:06:00,43.4,31.3,30.12,NNW,346,4.0,4.5,62,0.00,,---,0.00,VWS V14.01,2013-05-25 04:06:00,
2013-05-25 00:11:00,43.2,31.5,30.12,NNW,339,3.6,6.7,63,0.00,,---,0.00,VWS V14.01,2013-05-25 04:11:00,
2013-05-25 00:16:00,43.4,31.7,30.12,NNW,334,0.0,0.0,63,0.00,,---,0.00,VWS V14.01,2013-05-25 04:16:00,
2013-05-25 00:21:00,43.4,31.7,30.12,NNW,345,3.6,4.5,63,0.00,,---,0.00,VWS V14.01,2013-05-25 04:21:00,
2013-05-25 00:26:00,43.6,31.4,30.12,NNW,344,5.4,5.4,62,0.00,,---,0.00,VWS V14.01,2013-05-25 04:26:00,
2013-05-25 00:31:00,43.4,31.7,30.12,NNW,347,6.9,9.2,63,0.00,,---,0.00,VWS V14.01,2013-05-25 04:31:00,
2013-05-25 00:36:00,43.2,31.5,30.09,WNW,286,4.0,4.0,63,0.00,,---,0.00,VWS V14.01,2013-05-25 04:36:00,
2013-05-25 00:41:00,43.2,31.9,30.09,NNW,347,3.6,3.6,64,0.00,,---,0.00,VWS V14.01,2013-05-25 04:41:00,
2013-05-25 00:46:00,43.2,31.9,30.09,NW,318,3.1,4.0,64,0.00,,---,0.00,VWS V14.01,2013-05-25 04:46:00,
2013-05-25 00:51:00,43.0,31.7,30.09,North,8,3.6,4.5,64,0.00,,---,0.00,VWS V14.01,2013-05-25 04:51:00,
2013-05-25 00:56:00,43.0,31.7,30.09,WNW,301,3.6,4.9,64,0.00,,---,0.00,VWS V14.01,2013-05-25 04:56:00,
2013-05-25 01:01:00,42.9,31.5,30.09,NW,325,10.1,10.1,64,0.00,,---,0.00,VWS V14.01,2013-05-25 05:01:00,
2013-05-25 01:06:00,42.9,31.5,30.09,ESE,109,0.0,5.8,64,0.00,,---,0.00,VWS V14.01,2013-05-25 05:06:00,
2013-05-25 01:11:00,42.5,31.2,30.09,NW,323,4.5,6.7,64,0.00,,---,0.00,VWS V14.01,2013-05-25 05:11:00,
2013-05-25 01:16:00,42.7,31.8,30.09,ESE,119,6.3,6.3,65,0.00,,---,0.00,VWS V14.01,2013-05-25 05:16:00,
2013-05-25 01:21:00,42.9,31.1,30.09,West,269,7.8,7.8,63,0.00,,---,0.00,VWS V14.01,2013-05-25 05:21:00,
2013-05-25 01:26:00,42.9,31.5,30.09,NNW,347,5.4,5.4,64,0.00,,---,0.00,VWS V14.01,2013-05-25 05:26:00,
2013-05-25 01:31:00,42.9,31.1,30.09,NW,312,6.7,9.6,63,0.00,,---,0.00,VWS V14.01,2013-05-25 05:31:00,
2013-05-25 01:36:00,42.9,31.5,30.09,NNW,337,6.3,7.8,64,0.00,,---,0.00,VWS V14.01,2013-05-25 05:36:00,
2013-05-25 01:41:00,42.5,30.8,30.09,NW,304,6.7,6.7,63,0.00,,---,0.00,VWS V14.01,2013-05-25 05:41:00,
2013-05-25 01:46:00,42.3,31.0,30.09,NNW,336,4.0,8.3,64,0.00,,---,0.00,VWS V14.01,2013-05-25 05:46:00,
2013-05-25 01:51:00,42.1,31.2,30.09,NW,322,4.5,8.3,65,0.00,,---,0.00,VWS V14.01,2013-05-25 05:51:00,
2013-05-25 01:56:00,42.0,31.4,30.09,WNW,298,3.6,4.9,66,0.00,,---,0.00,VWS V14.01,2013-05-25 05:56:00,
2013-05-25 02:01:00,41.6,31.5,30.09,NNW,347,4.0,4.9,67,0.00,,---,0.00,VWS V14.01,2013-05-25 06:01:00,
2013-05-25 02:06:00,41.4,31.3,30.09,WSW,255,0.0,3.1,67,0.00,,---,0.00,VWS V14.01,2013-05-25 06:06:00,
2013-05-25 02:11:00,41.2,31.1,30.09,NNW,332,2.7,2.7,67,0.00,,---,0.00,VWS V14.01,2013-05-25 06:11:00,
2013-05-25 02:16:00,41.1,31.3,30.09,West,274,5.4,5.4,68,0.00,,---,0.00,VWS V14.01,2013-05-25 06:16:00,
2013-05-25 02:21:00,41.1,31.3,30.09,NNW,347,4.9,8.7,68,0.00,,---,0.00,VWS V14.01,2013-05-25 06:21:00,
2013-05-25 02:26:00,40.9,31.1,30.09,WSW,240,2.7,4.5,68,0.00,,---,0.00,VWS V14.01,2013-05-25 06:26:00,
2013-05-25 02:31:00,40.9,31.1,30.09,NNE,22,4.5,4.5,68,0.00,,---,0.00,VWS V14.01,2013-05-25 06:31:00,
2013-05-25 02:36:00,40.7,31.0,30.09,NW,307,4.9,4.9,68,0.00,,---,0.00,VWS V14.01,2013-05-25 06:36:00,
2013-05-25 02:41:00,40.5,31.2,30.09,NNW,338,4.5,6.3,69,0.00,,---,0.00,VWS V14.01,2013-05-25 06:41:00,
2013-05-25 02:46:00,40.5,31.2,30.09,NNW,341,4.0,4.5,69,0.00,,---,0.00,VWS V14.01,2013-05-25 06:46:00,
2013-05-25 02:51:00,40.3,31.0,30.09,NE,51,5.4,5.4,69,0.00,,---,0.00,VWS V14.01,2013-05-25 06:51:00,
2013-05-25 02:56:00,40.3,31.0,30.09,West,281,5.4,7.4,69,0.00,,---,0.00,VWS V14.01,2013-05-25 06:56:00,
2013-05-25 03:01:00,40.3,31.0,30.09,West,270,4.9,9.6,69,0.00,,---,0.00,VWS V14.01,2013-05-25 07:01:00,
2013-05-25 03:06:00,40.5,31.2,30.09,NW,311,10.1,10.1,69,0.00,,---,0.00,VWS V14.01,2013-05-25 07:06:00,
2013-05-25 03:11:00,40.3,31.0,30.09,NNW,337,4.9,5.8,69,0.00,,---,0.00,VWS V14.01,2013-05-25 07:11:00,
2013-05-25 03:16:00,40.3,31.0,30.09,NNW,344,4.5,5.4,69,0.00,,---,0.00,VWS V14.01,2013-05-25 07:16:00,
2013-05-25 03:21:00,40.3,31.0,30.09,NNW,337,9.2,9.2,69,0.00,,---,0.00,VWS V14.01,2013-05-25 07:21:00,
2013-05-25 03:26:00,40.2,31.2,30.09,NW,320,10.5,10.5,70,0.00,,---,0.00,VWS V14.01,2013-05-25 07:26:00,
2013-05-25 03:31:00,40.2,31.2,30.09,NW,323,9.2,9.2,70,0.00,,---,0.00,VWS V14.01,2013-05-25 07:31:00,
2013-05-25 03:36:00,40.0,31.0,30.09,NNW,336,13.4,13.4,70,0.00,,---,0.00,VWS V14.01,2013-05-25 07:36:00,
2013-05-25 03:41:00,40.2,31.2,30.09,NNW,347,13.0,13.0,70,0.00,,---,0.00,VWS V14.01,2013-05-25 07:41:00,
2013-05-25 03:46:00,40.0,31.0,30.09,NNW,328,10.1,10.1,70,0.00,,---,0.00,VWS V14.01,2013-05-25 07:46:00,
2013-05-25 03:51:00,40.0,31.0,30.09,WNW,298,7.8,7.8,70,0.00,,---,0.00,VWS V14.01,2013-05-25 07:51:00,
2013-05-25 03:56:00,40.0,31.0,30.09,NNW,340,10.5,10.5,70,0.00,,---,0.00,VWS V14.01,2013-05-25 07:56:00,
2013-05-25 04:01:00,40.0,31.0,30.09,NW,317,5.8,6.9,70,0.00,,---,0.00,VWS V14.01,2013-05-25 08:01:00,
2013-05-25 04:06:00,40.0,30.6,30.09,ENE,59,7.8,7.8,69,0.00,,---,0.00,VWS V14.01,2013-05-25 08:06:00,
2013-05-25 04:11:00,39.8,30.8,30.09,NNE,14,6.3,6.3,70,0.00,,---,0.00,VWS V14.01,2013-05-25 08:11:00,
2013-05-25 04:16:00,39.8,30.8,30.09,North,351,11.0,11.0,70,0.00,,---,0.00,VWS V14.01,2013-05-25 08:16:00,
2013-05-25 04:21:00,39.8,30.8,30.09,NNW,339,9.6,9.6,70,0.00,,---,0.00,VWS V14.01,2013-05-25 08:21:00,
2013-05-25 04:26:00,40.0,30.6,30.09,SW,232,3.1,3.1,69,0.00,,---,0.00,VWS V14.01,2013-05-25 08:26:00,
2013-05-25 04:31:00,39.8,30.5,30.09,NW,322,6.3,6.3,69,0.00,,---,0.00,VWS V14.01,2013-05-25 08:31:00,
2013-05-25 04:36:00,40.0,30.6,30.09,NNW,344,6.7,6.7,69,0.00,,---,0.00,VWS V14.01,2013-05-25 08:36:00,
2013-05-25 04:41:00,40.0,30.6,30.09,NNW,346,6.7,12.1,69,0.00,,---,0.00,VWS V14.01,2013-05-25 08:41:00,
2013-05-25 04:46:00,40.2,30.5,30.09,NNW,336,4.0,10.1,68,0.00,,---,0.00,VWS V14.01,2013-05-25 08:46:00,
2013-05-25 04:51:00,40.0,30.3,30.09,NW,313,6.7,6.7,68,0.00,,---,0.00,VWS V14.01,2013-05-25 08:51:00,
2013-05-25 04:56:00,40.2,30.5,30.09,NNW,328,5.4,5.4,68,0.00,,---,0.00,VWS V14.01,2013-05-25 08:56:00,
2013-05-25 05:01:00,39.8,30.1,30.09,NW,322,11.2,11.2,68,0.00,,---,0.00,VWS V14.01,2013-05-25 09:01:00,
2013-05-25 05:06:00,40.0,30.3,30.09,NW,318,5.8,8.7,68,0.00,,---,0.00,VWS V14.01,2013-05-25 09:06:00,
2013-05-25 05:11:00,40.0,30.3,30.09,NNW,335,6.9,6.9,68,0.00,,---,0.00,VWS V14.01,2013-05-25 09:11:00,
2013-05-25 05:16:00,39.8,30.1,30.09,NNW,340,5.4,10.5,68,0.00,,---,0.00,VWS V14.01,2013-05-25 09:16:00,
2013-05-25 05:21:00,40.0,30.3,30.09,NNW,342,10.5,11.2,68,0.00,,---,0.00,VWS V14.01,2013-05-25 09:21:00,
2013-05-25 05:26:00,39.8,30.1,30.09,NNW,327,6.9,10.1,68,0.00,,---,0.00,VWS V14.01,2013-05-25 09:26:00,
2013-05-25 05:31:00,39.6,29.9,30.09,West,279,7.8,7.8,68,0.00,,---,0.00,VWS V14.01,2013-05-25 09:31:00,
2013-05-25 05:36:00,39.4,30.1,30.09,West,278,3.1,6.7,69,0.00,,---,0.00,VWS V14.01,2013-05-25 09:36:00,
2013-05-25 05:41:00,39.4,30.1,30.09,North,351,2.7,12.1,69,0.00,,---,0.00,VWS V14.01,2013-05-25 09:41:00,
2013-05-25 05:46:00,39.3,30.0,30.09,WNW,293,10.5,15.2,69,0.00,,---,0.00,VWS V14.01,2013-05-25 09:46:00,
2013-05-25 05:51:00,39.4,30.1,30.09,NW,325,4.9,5.4,69,0.00,,---,0.00,VWS V14.01,2013-05-25 09:51:00,
2013-05-25 05:56:00,39.3,30.0,30.09,North,351,3.6,7.4,69,0.00,,---,0.00,VWS V14.01,2013-05-25 09:56:00,
2013-05-25 06:01:00,39.1,29.8,30.09,North,356,7.8,13.4,69,0.00,,---,0.00,VWS V14.01,2013-05-25 10:01:00,
2013-05-25 06:06:00,39.3,29.6,30.09,NW,321,6.3,9.2,68,0.00,,---,0.00,VWS V14.01,2013-05-25 10:06:00,
2013-05-25 06:11:00,39.3,29.6,30.09,NNW,338,5.8,6.7,68,0.00,,---,0.00,VWS V14.01,2013-05-25 10:11:00,
2013-05-25 06:16:00,39.3,29.6,30.09,NW,322,4.9,7.4,68,0.00,,---,0.00,VWS V14.01,2013-05-25 10:16:00,
2013-05-25 06:21:00,39.4,29.8,30.09,NNW,340,6.3,11.0,68,0.00,,---,0.00,VWS V14.01,2013-05-25 10:21:00,
2013-05-25 06:26:00,39.6,29.9,30.09,NNW,337,8.3,8.3,68,0.00,,---,0.00,VWS V14.01,2013-05-25 10:26:00,
2013-05-25 06:31:00,39.8,30.1,30.09,SSW,208,6.3,13.0,68,0.00,,---,0.00,VWS V14.01,2013-05-25 10:31:00,
2013-05-25 06:36:00,40.0,30.3,30.09,SSW,200,3.6,4.9,68,0.00,,---,0.00,VWS V14.01,2013-05-25 10:36:00,
2013-05-25 06:41:00,40.2,30.5,30.09,NNW,334,5.4,6.7,68,0.00,,---,0.00,VWS V14.01,2013-05-25 10:41:00,
2013-05-25 06:46:00,40.3,30.6,30.09,WNW,283,3.6,7.4,68,0.00,,---,0.00,VWS V14.01,2013-05-25 10:46:00,
2013-05-25 06:51:00,40.3,30.3,30.09,NNW,327,4.5,10.1,67,0.00,,---,0.00,VWS V14.01,2013-05-25 10:51:00,
2013-05-25 06:56:00,40.5,30.1,30.09,NE,47,6.7,11.0,66,0.00,,---,0.00,VWS V14.01,2013-05-25 10:56:00,
2013-05-25 07:01:00,40.7,29.9,30.09,NNW,330,9.2,12.1,65,0.00,,---,0.00,VWS V14.01,2013-05-25 11:01:00,
2013-05-25 07:05:00,40.9,30.0,30.12,ENE,62,0.0,7.8,65,0.00,,---,0.00,VWS V14.01,2013-05-25 11:05:00,
2013-05-25 07:10:00,41.1,29.8,30.12,NNW,331,7.4,7.8,64,0.00,,---,0.00,VWS V14.01,2013-05-25 11:10:00,
2013-05-25 07:15:00,41.2,30.4,30.12,West,277,3.1,6.7,65,0.00,,---,0.00,VWS V14.01,2013-05-25 11:15:00,
2013-05-25 07:20:00,41.2,29.6,30.12,NW,322,6.9,11.0,63,0.00,,---,0.00,VWS V14.01,2013-05-25 11:20:00,
2013-05-25 07:25:00,41.2,30.4,30.12,NW,315,11.6,16.3,65,0.00,,---,0.00,VWS V14.01,2013-05-25 11:25:00,
2013-05-25 07:30:00,41.6,30.3,30.12,NW,317,6.7,8.3,64,0.00,,---,0.00,VWS V14.01,2013-05-25 11:30:00,
2013-05-25 07:35:00,41.8,30.5,30.12,South,177,5.8,12.1,64,0.00,,---,0.00,VWS V14.01,2013-05-25 11:35:00,
2013-05-25 07:40:00,42.1,30.9,30.12,ESE,116,4.5,6.7,64,0.00,,---,0.00,VWS V14.01,2013-05-25 11:40:00,
2013-05-25 07:45:00,42.7,31.4,30.12,NNE,32,4.5,5.4,64,0.00,,---,0.00,VWS V14.01,2013-05-25 11:45:00,
2013-05-25 07:50:00,43.0,30.5,30.12,NNW,338,6.7,10.5,61,0.00,,---,0.00,VWS V14.01,2013-05-25 11:50:00,
2013-05-25 07:55:00,43.9,31.4,30.12,NW,324,8.7,9.6,61,0.00,,---,0.00,VWS V14.01,2013-05-25 11:55:00,
2013-05-25 08:00:00,45.0,31.6,30.12,NNW,337,3.1,5.8,59,0.00,,---,0.00,VWS V14.01,2013-05-25 12:00:00,
2013-05-25 08:05:00,46.5,32.1,30.12,SW,223,5.8,11.0,57,0.00,,---,0.00,VWS V14.01,2013-05-25 12:05:00,
2013-05-25 08:10:00,47.2,32.7,30.12,NNW,335,9.2,10.1,57,0.00,,---,0.00,VWS V14.01,2013-05-25 12:10:00,
2013-05-25 08:15:00,47.5,33.1,30.12,West,274,4.5,5.8,57,0.00,,---,0.00,VWS V14.01,2013-05-25 12:15:00,
2013-05-25 08:20:00,48.6,33.7,30.12,WNW,291,8.7,8.7,56,0.00,,---,0.00,VWS V14.01,2013-05-25 12:20:00,
2013-05-25 08:25:00,49.5,34.5,30.12,South,172,0.0,10.5,56,0.00,,---,0.00,VWS V14.01,2013-05-25 12:25:00,
2013-05-25 08:30:00,49.5,34.5,30.12,NE,49,3.6,6.7,56,0.00,,---,0.00,VWS V14.01,2013-05-25 12:30:00,
2013-05-25 08:35:00,50.4,35.3,30.12,NNW,331,4.5,9.6,56,0.00,,---,0.00,VWS V14.01,2013-05-25 12:35:00,
2013-05-25 08:40:00,49.3,33.0,30.12,NNW,335,4.9,6.7,53,0.00,,---,0.00,VWS V14.01,2013-05-25 12:40:00,
2013-05-25 08:45:00,51.5,34.5,30.12,NNW,337,4.0,7.8,52,0.00,,---,0.00,VWS V14.01,2013-05-25 12:45:00,
2013-05-25 08:50:00,50.2,32.3,30.12,East,87,4.5,7.8,50,0.00,,---,0.00,VWS V14.01,2013-05-25 12:50:00,
2013-05-25 08:55:00,50.1,32.2,30.12,NNW,334,6.7,10.1,50,0.00,,---,0.00,VWS V14.01,2013-05-25 12:55:00,
2013-05-25 09:00:00,51.5,33.5,30.12,SSW,201,2.7,8.3,50,0.00,,---,0.00,VWS V14.01,2013-05-25 13:00:00,
2013-05-25 09:05:00,50.8,31.8,30.12,NE,36,0.0,6.9,48,0.00,,---,0.00,VWS V14.01,2013-05-25 13:05:00,
2013-05-25 09:10:00,51.9,32.3,30.12,NNW,347,3.1,6.9,47,0.00,,---,0.00,VWS V14.01,2013-05-25 13:10:00,
2013-05-25 09:15:00,52.0,32.5,30.12,NNE,22,6.9,17.2,47,0.00,,---,0.00,VWS V14.01,2013-05-25 13:15:00,
2013-05-25 09:20:00,50.4,31.5,30.12,ENE,71,8.7,10.5,48,0.00,,---,0.00,VWS V14.01,2013-05-25 13:20:00,
2013-05-25 09:25:00,51.1,32.2,30.12,NE,49,5.4,8.7,48,0.00,,---,0.00,VWS V14.01,2013-05-25 13:25:00,
2013-05-25 09:30:00,50.1,31.2,30.12,West,261,2.7,5.4,48,0.00,,---,0.00,VWS V14.01,2013-05-25 13:30:00,
2013-05-25 09:35:00,48.8,30.0,30.12,East,79,6.7,8.3,48,0.00,,---,0.00,VWS V14.01,2013-05-25 13:35:00,
2013-05-25 09:40:00,49.9,31.0,30.12,NE,56,3.1,9.2,48,0.00,,---,0.00,VWS V14.01,2013-05-25 13:40:00,
2013-05-25 09:45:00,51.7,32.1,30.12,NW,308,8.3,11.2,47,0.00,,---,0.00,VWS V14.01,2013-05-25 13:45:00,
2013-05-25 09:50:00,51.1,32.2,30.12,NE,38,5.4,11.6,48,0.00,,---,0.00,VWS V14.01,2013-05-25 13:50:00,
2013-05-25 09:55:00,50.4,31.5,30.12,NNW,346,7.8,9.2,48,0.00,,---,0.00,VWS V14.01,2013-05-25 13:55:00,
2013-05-25 10:00:00,52.4,32.8,30.12,NW,310,7.8,13.0,47,0.00,,---,0.00,VWS V14.01,2013-05-25 14:00:00,
2013-05-25 10:05:00,53.1,32.4,30.12,NNW,332,9.6,11.2,45,0.00,,---,0.00,VWS V14.01,2013-05-25 14:05:00,
2013-05-25 10:10:00,51.3,30.7,30.12,North,351,12.1,12.1,45,0.00,,---,0.00,VWS V14.01,2013-05-25 14:10:00,
2013-05-25 10:15:00,51.0,30.4,30.12,NE,41,4.9,11.2,45,0.00,,---,0.00,VWS V14.01,2013-05-25 14:15:00,
2013-05-25 10:20:00,49.7,29.2,30.12,NNW,334,4.9,7.8,45,0.00,,---,0.00,VWS V14.01,2013-05-25 14:20:00,
2013-05-25 10:25:00,50.1,29.6,30.12,NNW,342,11.2,12.1,45,0.00,,---,0.00,VWS V14.01,2013-05-25 14:25:00,
2013-05-25 10:30:00,51.3,30.7,30.12,ENE,70,11.0,12.1,45,0.00,,---,0.00,VWS V14.01,2013-05-25 14:30:00,
2013-05-25 10:35:00,52.2,31.5,30.12,NE,43,5.8,12.5,45,0.00,,---,0.00,VWS V14.01,2013-05-25 14:35:00,
2013-05-25 10:40:00,53.3,33.6,30.12,NNW,345,7.4,7.8,47,0.00,,---,0.00,VWS V14.01,2013-05-25 14:40:00,
2013-05-25 10:45:00,52.0,31.4,30.12,NE,48,8.3,10.5,45,0.00,,---,0.00,VWS V14.01,2013-05-25 14:45:00,
2013-05-25 10:50:00,51.5,30.9,30.12,NE,49,6.3,13.4,45,0.00,,---,0.00,VWS V14.01,2013-05-25 14:50:00,
2013-05-25 10:55:00,53.3,32.0,30.12,NE,49,10.5,13.0,44,0.00,,---,0.00,VWS V14.01,2013-05-25 14:55:00,
2013-05-25 11:00:00,52.9,32.2,30.12,West,270,9.2,10.1,45,0.00,,---,0.00,VWS V14.01,2013-05-25 15:00:00,
2013-05-25 11:05:00,53.1,32.4,30.12,NNE,32,14.3,15.4,45,0.00,,---,0.00,VWS V14.01,2013-05-25 15:05:00,
2013-05-25 11:10:00,55.3,33.8,30.12,NNW,338,10.5,10.5,44,0.00,,---,0.00,VWS V14.01,2013-05-25 15:10:00,
2013-05-25 11:15:00,53.7,32.3,30.12,NE,48,6.9,8.7,44,0.00,,---,0.00,VWS V14.01,2013-05-25 15:15:00,
2013-05-25 11:20:00,54.4,32.9,30.12,NE,37,7.8,16.3,44,0.00,,---,0.00,VWS V14.01,2013-05-25 15:20:00,
2013-05-25 11:25:00,52.6,31.9,30.12,NE,41,7.8,13.4,45,0.00,,---,0.00,VWS V14.01,2013-05-25 15:25:00,
2013-05-25 11:30:00,53.3,32.5,30.12,North,351,4.5,11.2,45,0.00,,---,0.00,VWS V14.01,2013-05-25 15:30:00,
2013-05-25 11:35:00,55.1,33.6,30.12,SSW,203,4.0,18.1,44,0.00,,---,0.00,VWS V14.01,2013-05-25 15:35:00,
2013-05-25 11:40:00,54.9,33.4,30.12,NNW,337,11.0,14.3,44,0.00,,---,0.00,VWS V14.01,2013-05-25 15:40:00,
2013-05-25 11:45:00,55.1,33.6,30.12,NE,44,6.3,10.5,44,0.00,,---,0.00,VWS V14.01,2013-05-25 15:45:00,
2013-05-25 11:50:00,56.2,34.6,30.12,North,356,4.5,18.1,44,0.00,,---,0.00,VWS V14.01,2013-05-25 15:50:00,
2013-05-25 11:55:00,55.3,33.8,30.12,NE,45,11.6,11.6,44,0.00,,---,0.00,VWS V14.01,2013-05-25 15:55:00,
2013-05-25 12:00:00,54.9,33.4,30.12,NE,53,4.9,6.9,44,0.00,,---,0.00,VWS V14.01,2013-05-25 16:00:00,
2013-05-25 12:05:00,57.4,35.7,30.12,North,4,5.8,12.1,44,0.00,,---,0.00,VWS V14.01,2013-05-25 16:05:00,
2013-05-25 12:10:00,56.7,35.1,30.12,NNW,343,8.7,12.5,44,0.00,,---,0.00,VWS V14.01,2013-05-25 16:10:00,
2013-05-25 12:15:00,56.7,35.1,30.12,North,356,7.8,7.8,44,0.00,,---,0.00,VWS V14.01,2013-05-25 16:15:00,
2013-05-25 12:20:00,57.1,35.4,30.12,NNW,341,5.4,7.8,44,0.00,,---,0.00,VWS V14.01,2013-05-25 16:20:00,
2013-05-25 12:25:00,55.8,34.2,30.12,WSW,256,4.5,5.8,44,0.00,,---,0.00,VWS V14.01,2013-05-25 16:25:00,
2013-05-25 12:30:00,56.2,34.6,30.12,West,273,4.5,15.4,44,0.00,,---,0.00,VWS V14.01,2013-05-25 16:30:00,
2013-05-25 12:35:00,54.4,32.9,30.12,North,351,8.3,8.3,44,0.00,,---,0.00,VWS V14.01,2013-05-25 16:35:00,
2013-05-25 12:40:00,56.2,34.6,30.12,East,83,7.4,7.4,44,0.00,,---,0.00,VWS V14.01,2013-05-25 16:40:00,
2013-05-25 12:45:00,56.4,34.7,30.12,NNW,329,7.8,10.1,44,0.00,,---,0.00,VWS V14.01,2013-05-25 16:45:00,
2013-05-25 12:50:00,58.0,36.2,30.12,NE,48,6.7,7.4,44,0.00,,---,0.00,VWS V14.01,2013-05-25 16:50:00,
2013-05-25 12:55:00,57.6,35.9,30.12,East,79,3.6,8.3,44,0.00,,---,0.00,VWS V14.01,2013-05-25 16:55:00,
2013-05-25 13:00:00,58.0,36.2,30.12,ENE,69,8.7,14.3,44,0.00,,---,0.00,VWS V14.01,2013-05-25 17:00:00,
2013-05-25 13:05:00,59.1,36.6,30.12,North,9,19.9,19.9,43,0.00,,---,0.00,VWS V14.01,2013-05-25 17:05:00,
2013-05-25 13:10:00,58.3,36.5,30.12,NNW,345,5.8,7.4,44,0.00,,---,0.00,VWS V14.01,2013-05-25 17:10:00,
2013-05-25 13:15:00,58.0,36.2,30.12,NNW,330,7.8,9.2,44,0.00,,---,0.00,VWS V14.01,2013-05-25 17:15:00,
2013-05-25 13:20:00,59.6,37.1,30.09,South,179,6.7,14.3,43,0.00,,---,0.00,VWS V14.01,2013-05-25 17:20:00,
2013-05-25 13:25:00,60.9,38.2,30.09,North,351,8.3,17.7,43,0.00,,---,0.00,VWS V14.01,2013-05-25 17:25:00,
2013-05-25 13:30:00,59.6,37.1,30.09,NW,315,3.6,4.5,43,0.00,,---,0.00,VWS V14.01,2013-05-25 17:30:00,
2013-05-25 13:35:00,56.2,34.6,30.12,North,351,9.2,9.6,44,0.00,,---,0.00,VWS V14.01,2013-05-25 17:35:00,
2013-05-25 13:40:00,59.8,37.3,30.12,NW,319,9.6,9.6,43,0.00,,---,0.00,VWS V14.01,2013-05-25 17:40:00,
2013-05-25 13:45:00,60.1,37.6,30.12,North,351,0.0,7.4,43,0.00,,---,0.00,VWS V14.01,2013-05-25 17:45:00,
2013-05-25 13:50:00,60.5,37.9,30.09,NE,43,6.3,13.4,43,0.00,,---,0.00,VWS V14.01,2013-05-25 17:50:00,
2013-05-25 13:55:00,59.4,36.9,30.09,NNW,329,5.8,6.9,43,0.00,,---,0.00,VWS V14.01,2013-05-25 17:55:00,
2013-05-25 14:00:00,58.9,36.5,30.09,NNE,25,5.4,7.8,43,0.00,,---,0.00,VWS V14.01,2013-05-25 18:00:00,
2013-05-25 14:05:00,60.1,37.6,30.09,NNW,345,5.8,11.0,43,0.00,,---,0.00,VWS V14.01,2013-05-25 18:05:00,
2013-05-25 14:10:00,60.5,37.9,30.09,NNW,335,14.3,18.6,43,0.00,,---,0.00,VWS V14.01,2013-05-25 18:10:00,
2013-05-25 14:15:00,60.9,38.2,30.09,NE,42,4.0,5.8,43,0.00,,---,0.00,VWS V14.01,2013-05-25 18:15:00,
2013-05-25 14:20:00,61.4,38.7,30.09,ENE,60,4.0,5.4,43,0.00,,---,0.00,VWS V14.01,2013-05-25 18:20:00,
2013-05-25 14:25:00,59.6,37.1,30.09,North,356,6.9,11.0,43,0.00,,---,0.00,VWS V14.01,2013-05-25 18:25:00,
2013-05-25 14:30:00,57.8,36.0,30.09,ENE,73,11.6,12.1,44,0.00,,---,0.00,VWS V14.01,2013-05-25 18:30:00,
2013-05-25 14:35:00,58.5,36.7,30.09,East,94,9.2,9.2,44,0.00,,---,0.00,VWS V14.01,2013-05-25 18:35:00,
2013-05-25 14:40:00,60.3,37.8,30.09,ESE,106,6.9,8.7,43,0.00,,---,0.00,VWS V14.01,2013-05-25 18:40:00,
2013-05-25 14:45:00,60.9,38.2,30.09,West,272,6.9,9.6,43,0.00,,---,0.00,VWS V14.01,2013-05-25 18:45:00,
2013-05-25 14:50:00,60.1,37.6,30.09,NE,37,6.3,7.8,43,0.00,,---,0.00,VWS V14.01,2013-05-25 18:50:00,
2013-05-25 14:55:00,60.5,37.9,30.09,East,95,10.5,11.6,43,0.00,,---,0.00,VWS V14.01,2013-05-25 18:55:00,
2013-05-25 15:00:00,59.1,36.6,30.09,NW,325,11.2,18.1,43,0.00,,---,0.00,VWS V14.01,2013-05-25 19:00:00,
2013-05-25 15:05:00,61.4,38.7,30.06,WNW,289,8.3,17.7,43,0.00,,---,0.00,VWS V14.01,2013-05-25 19:05:00,
2013-05-25 15:10:00,60.7,38.1,30.06,NE,50,8.3,11.0,43,0.00,,---,0.00,VWS V14.01,2013-05-25 19:10:00,
2013-05-25 15:15:00,59.2,36.8,30.06,NNW,341,8.7,8.7,43,0.00,,---,0.00,VWS V14.01,2013-05-25 19:15:00,
2013-05-25 15:20:00,59.1,36.6,30.06,South,176,12.1,12.1,43,0.00,,---,0.00,VWS V14.01,2013-05-25 19:20:00,
2013-05-25 15:25:00,60.0,37.4,30.06,NNW,345,3.6,5.4,43,0.00,,---,0.00,VWS V14.01,2013-05-25 19:25:00,
2013-05-25 15:30:00,59.1,36.6,30.06,East,97,6.9,9.2,43,0.00,,---,0.00,VWS V14.01,2013-05-25 19:30:00,
2013-05-25 15:35:00,60.0,37.4,30.06,SE,130,14.8,14.8,43,0.00,,---,0.00,VWS V14.01,2013-05-25 19:35:00,
2013-05-25 15:40:00,61.0,38.4,30.06,ENE,59,12.5,12.5,43,0.00,,---,0.00,VWS V14.01,2013-05-25 19:40:00,
2013-05-25 15:45:00,62.5,39.1,30.06,North,356,11.0,17.2,42,0.00,,---,0.00,VWS V14.01,2013-05-25 19:45:00,
2013-05-25 15:50:00,61.2,38.6,30.06,NNW,340,8.7,8.7,43,0.00,,---,0.00,VWS V14.01,2013-05-25 19:50:00,
2013-05-25 15:55:00,61.0,38.4,30.06,NW,326,12.5,17.7,43,0.00,,---,0.00,VWS V14.01,2013-05-25 19:55:00,
2013-05-25 16:00:00,60.5,37.9,30.06,ENE,66,5.4,5.4,43,0.00,,---,0.00,VWS V14.01,2013-05-25 20:00:00,
2013-05-25 16:05:00,58.7,36.3,30.06,NNE,16,6.7,9.6,43,0.00,,---,0.00,VWS V14.01,2013-05-25 20:05:00,
2013-05-25 16:10:00,60.0,37.4,30.06,NNW,337,7.4,7.4,43,0.00,,---,0.00,VWS V14.01,2013-05-25 20:10:00,
2013-05-25 16:15:00,59.8,37.3,30.06,ENE,76,6.9,11.0,43,0.00,,---,0.00,VWS V14.01,2013-05-25 20:15:00,
2013-05-25 16:20:00,59.4,36.9,30.06,NNW,341,11.0,11.6,43,0.00,,---,0.00,VWS V14.01,2013-05-25 20:20:00,
2013-05-25 16:25:00,61.2,38.6,30.06,NNW,330,7.4,8.3,43,0.00,,---,0.00,VWS V14.01,2013-05-25 20:25:00,
2013-05-25 16:30:00,59.2,36.8,30.06,NE,55,6.7,6.7,43,0.00,,---,0.00,VWS V14.01,2013-05-25 20:30:00,
2013-05-25 16:35:00,60.9,38.2,30.03,NNW,339,7.8,7.8,43,0.00,,---,0.00,VWS V14.01,2013-05-25 20:35:00,
2013-05-25 16:40:00,61.8,39.0,30.03,NNW,344,11.0,11.0,43,0.00,,---,0.00,VWS V14.01,2013-05-25 20:40:00,
2013-05-25 16:45:00,62.8,39.4,30.03,WNW,295,12.5,13.0,42,0.00,,---,0.00,VWS V14.01,2013-05-25 20:45:00,
2013-05-25 16:50:00,61.8,39.0,30.06,East,86,6.3,6.3,43,0.00,,---,0.00,VWS V14.01,2013-05-25 20:50:00,
2013-05-25 16:55:00,62.5,39.1,30.06,West,279,4.5,7.8,42,0.00,,---,0.00,VWS V14.01,2013-05-25 20:55:00,
2013-05-25 17:00:00,62.1,39.4,30.06,North,356,4.9,8.7,43,0.00,,---,0.00,VWS V14.01,2013-05-25 21:00:00,
2013-05-25 17:05:00,60.0,37.4,30.03,NNE,23,4.5,6.3,43,0.00,,---,0.00,VWS V14.01,2013-05-25 21:05:00,
2013-05-25 17:10:00,60.3,37.8,30.03,NNW,345,6.7,6.7,43,0.00,,---,0.00,VWS V14.01,2013-05-25 21:10:00,
2013-05-25 17:15:00,61.6,38.9,30.03,NW,314,7.4,7.4,43,0.00,,---,0.00,VWS V14.01,2013-05-25 21:15:00,
2013-05-25 17:20:00,60.9,38.2,30.06,NW,319,7.8,11.0,43,0.00,,---,0.00,VWS V14.01,2013-05-25 21:20:00,
2013-05-25 17:25:00,60.0,37.4,30.06,NNW,335,6.7,6.7,43,0.00,,---,0.00,VWS V14.01,2013-05-25 21:25:00,
2013-05-25 17:30:00,58.5,36.7,30.06,North,351,10.1,10.1,44,0.00,,---,0.00,VWS V14.01,2013-05-25 21:30:00,
2013-05-25 17:35:00,60.1,37.6,30.06,NNW,338,7.8,7.8,43,0.00,,---,0.00,VWS V14.01,2013-05-25 21:35:00,
2013-05-25 17:40:00,60.1,37.6,30.06,North,0,9.2,9.2,43,0.00,,---,0.00,VWS V14.01,2013-05-25 21:40:00,
2013-05-25 17:45:00,58.7,36.9,30.06,WNW,284,4.5,6.7,44,0.00,,---,0.00,VWS V14.01,2013-05-25 21:45:00,
2013-05-25 17:50:00,58.3,36.5,30.06,ENE,67,8.7,8.7,44,0.00,,---,0.00,VWS V14.01,2013-05-25 21:50:00,
2013-05-25 17:55:00,58.0,36.2,30.06,NE,34,9.6,9.6,44,0.00,,---,0.00,VWS V14.01,2013-05-25 21:55:00,
2013-05-25 18:00:00,58.2,36.4,30.06,NE,35,6.9,7.8,44,0.00,,---,0.00,VWS V14.01,2013-05-25 22:00:00,
2013-05-25 18:05:00,58.3,36.5,30.06,NNW,341,9.2,10.1,44,0.00,,---,0.00,VWS V14.01,2013-05-25 22:05:00,
2013-05-25 18:10:00,58.5,36.7,30.06,North,351,4.9,4.9,44,0.00,,---,0.00,VWS V14.01,2013-05-25 22:10:00,
2013-05-25 18:15:00,59.1,36.6,30.06,NNW,339,11.2,11.2,43,0.00,,---,0.00,VWS V14.01,2013-05-25 22:15:00,
2013-05-25 18:20:00,58.3,36.5,30.06,NW,310,6.7,6.7,44,0.00,,---,0.00,VWS V14.01,2013-05-25 22:20:00,
2013-05-25 18:25:00,57.3,35.6,30.06,West,277,10.5,20.1,44,0.00,,---,0.00,VWS V14.01,2013-05-25 22:25:00,
2013-05-25 18:30:00,56.7,35.1,30.06,NNW,338,4.9,4.9,44,0.00,,---,0.00,VWS V14.01,2013-05-25 22:30:00,
2013-05-25 18:35:00,56.7,35.1,30.06,NNE,31,4.0,4.0,44,0.00,,---,0.00,VWS V14.01,2013-05-25 22:35:00,
2013-05-25 18:40:00,56.7,35.1,30.06,NNW,331,6.3,12.5,44,0.00,,---,0.00,VWS V14.01,2013-05-25 22:40:00,
2013-05-25 18:45:00,56.4,34.7,30.06,NNW,347,10.1,12.5,44,0.00,,---,0.00,VWS V14.01,2013-05-25 22:45:00,
2013-05-25 18:50:00,56.2,34.6,30.06,NNW,345,6.3,6.9,44,0.00,,---,0.00,VWS V14.01,2013-05-25 22:50:00,
2013-05-25 18:55:00,55.8,34.2,30.06,NNW,341,7.4,11.6,44,0.00,,---,0.00,VWS V14.01,2013-05-25 22:55:00,
2013-05-25 19:00:00,55.1,33.6,30.06,NW,320,6.9,15.4,44,0.00,,---,0.00,VWS V14.01,2013-05-25 23:00:00,
2013-05-25 19:05:00,54.9,33.4,30.09,NNE,28,4.5,16.8,44,0.00,,---,0.00,VWS V14.01,2013-05-25 23:05:00,
2013-05-25 19:10:00,54.9,33.4,30.09,NW,304,16.8,16.8,44,0.00,,---,0.00,VWS V14.01,2013-05-25 23:10:00,
2013-05-25 19:15:00,54.6,33.1,30.09,NNW,329,5.4,5.4,44,0.00,,---,0.00,VWS V14.01,2013-05-25 23:15:00,
2013-05-25 19:20:00,53.8,32.5,30.09,NNW,328,5.8,5.8,44,0.00,,---,0.00,VWS V14.01,2013-05-25 23:20:00,
2013-05-25 19:25:00,53.8,32.5,30.09,East,101,6.3,11.2,44,0.00,,---,0.00,VWS V14.01,2013-05-25 23:25:00,
2013-05-25 19:30:00,53.8,32.5,30.09,NNW,346,7.4,10.5,44,0.00,,---,0.00,VWS V14.01,2013-05-25 23:30:00,
2013-05-25 19:35:00,53.8,32.5,30.09,NNW,343,4.0,4.0,44,0.00,,---,0.00,VWS V14.01,2013-05-25 23:35:00,
2013-05-25 19:40:00,53.5,32.1,30.09,North,356,4.9,11.0,44,0.00,,---,0.00,VWS V14.01,2013-05-25 23:40:00,
2013-05-25 19:45:00,53.5,32.1,30.09,NNE,31,6.7,10.1,44,0.00,,---,0.00,VWS V14.01,2013-05-25 23:45:00,
2013-05-25 19:50:00,53.3,32.0,30.09,WNW,300,4.5,14.3,44,0.00,,---,0.00,VWS V14.01,2013-05-25 23:50:00,
2013-05-25 19:55:00,53.1,32.4,30.09,NNW,340,5.4,11.2,45,0.00,,---,0.00,VWS V14.01,2013-05-25 23:55:00,
2013-05-25 20:00:00,52.9,32.2,30.09,NE,41,4.5,4.9,45,0.00,,---,0.00,VWS V14.01,2013-05-26 00:00:00,
2013-05-25 20:05:00,52.6,31.9,30.09,North,351,5.8,6.7,45,0.00,,---,0.00,VWS V14.01,2013-05-26 00:05:00,
2013-05-25 20:09:00,52.2,31.5,30.09,North,351,4.0,4.0,45,0.00,,---,0.00,VWS V14.01,2013-05-26 00:09:00,
2013-05-25 20:14:00,51.9,31.2,30.09,NW,308,3.1,5.8,45,0.00,,---,0.00,VWS V14.01,2013-05-26 00:14:00,
2013-05-25 20:19:00,51.7,31.0,30.09,West,280,4.5,7.8,45,0.00,,---,0.00,VWS V14.01,2013-05-26 00:19:00,
2013-05-25 20:24:00,51.3,30.7,30.09,NE,35,0.0,3.1,45,0.00,,---,0.00,VWS V14.01,2013-05-26 00:24:00,
2013-05-25 20:29:00,51.0,30.4,30.09,East,92,0.0,11.6,45,0.00,,---,0.00,VWS V14.01,2013-05-26 00:29:00,
2013-05-25 20:34:00,51.1,30.5,30.09,SE,137,4.9,4.9,45,0.00,,---,0.00,VWS V14.01,2013-05-26 00:34:00,
2013-05-25 20:39:00,50.8,30.2,30.09,NNE,24,6.3,6.7,45,0.00,,---,0.00,VWS V14.01,2013-05-26 00:39:00,
2013-05-25 20:44:00,50.6,30.1,30.09,North,2,2.7,3.6,45,0.00,,---,0.00,VWS V14.01,2013-05-26 00:44:00,
2013-05-25 20:49:00,50.1,29.6,30.09,NNW,347,4.0,6.3,45,0.00,,---,0.00,VWS V14.01,2013-05-26 00:49:00,
2013-05-25 20:54:00,50.1,29.6,30.09,WNW,303,0.0,5.4,45,0.00,,---,0.00,VWS V14.01,2013-05-26 00:54:00,
2013-05-25 20:59:00,50.1,29.6,30.09,NNW,347,2.7,4.9,45,0.00,,---,0.00,VWS V14.01,2013-05-26 00:59:00,
2013-05-25 21:04:00,49.9,29.4,30.09,NNE,20,4.9,6.7,45,0.00,,---,0.00,VWS V14.01,2013-05-26 01:04:00,
2013-05-25 21:09:00,49.9,29.4,30.12,NNE,19,3.6,5.4,45,0.00,,---,0.00,VWS V14.01,2013-05-26 01:09:00,
2013-05-25 21:14:00,49.5,29.6,30.12,NNW,340,3.6,6.7,46,0.00,,---,0.00,VWS V14.01,2013-05-26 01:14:00,
2013-05-25 21:19:00,49.5,29.6,30.12,East,97,0.0,3.1,46,0.00,,---,0.00,VWS V14.01,2013-05-26 01:19:00,
2013-05-25 21:24:00,49.2,29.3,30.12,NW,316,0.0,6.3,46,0.00,,---,0.00,VWS V14.01,2013-05-26 01:24:00,
2013-05-25 21:29:00,48.6,28.8,30.12,North,356,4.0,4.0,46,0.00,,---,0.00,VWS V14.01,2013-05-26 01:29:00,
2013-05-25 21:34:00,48.4,28.6,30.12,NNW,347,3.6,4.0,46,0.00,,---,0.00,VWS V14.01,2013-05-26 01:34:00,
2013-05-25 21:39:00,48.3,28.5,30.12,NNW,344,0.0,3.1,46,0.00,,---,0.00,VWS V14.01,2013-05-26 01:39:00,
2013-05-25 21:44:00,48.3,28.5,30.12,NNW,338,7.4,9.6,46,0.00,,---,0.00,VWS V14.01,2013-05-26 01:44:00,
2013-05-25 21:49:00,48.4,28.6,30.12,SSW,213,0.0,3.6,46,0.00,,---,0.00,VWS V14.01,2013-05-26 01:49:00,
2013-05-25 21:54:00,48.4,28.6,30.12,NW,319,5.4,6.3,46,0.00,,---,0.00,VWS V14.01,2013-05-26 01:54:00,
2013-05-25 21:59:00,48.3,28.5,30.12,NNW,343,3.6,4.5,46,0.00,,---,0.00,VWS V14.01,2013-05-26 01:59:00,
2013-05-25 22:04:00,48.3,28.5,30.12,North,356,3.1,4.5,46,0.00,,---,0.00,VWS V14.01,2013-05-26 02:04:00,
2013-05-25 22:09:00,48.1,28.3,30.12,NNW,347,0.0,5.8,46,0.00,,---,0.00,VWS V14.01,2013-05-26 02:09:00,
2013-05-25 22:14:00,47.9,28.1,30.12,NNW,331,5.8,6.3,46,0.00,,---,0.00,VWS V14.01,2013-05-26 02:14:00,
2013-05-25 22:19:00,48.3,28.5,30.12,SSE,147,4.0,5.8,46,0.00,,---,0.00,VWS V14.01,2013-05-26 02:19:00,
2013-05-25 22:24:00,48.3,28.5,30.12,ENE,59,4.9,6.9,46,0.00,,---,0.00,VWS V14.01,2013-05-26 02:24:00,
2013-05-25 22:29:00,48.1,28.3,30.12,North,351,10.5,11.2,46,0.00,,---,0.00,VWS V14.01,2013-05-26 02:29:00,
2013-05-25 22:34:00,48.3,28.5,30.12,NNW,345,6.3,6.9,46,0.00,,---,0.00,VWS V14.01,2013-05-26 02:34:00,
2013-05-25 22:39:00,48.4,28.6,30.12,ESE,105,3.6,7.4,46,0.00,,---,0.00,VWS V14.01,2013-05-26 02:39:00,
2013-05-25 22:44:00,48.1,28.3,30.12,NNW,329,4.9,12.1,46,0.00,,---,0.00,VWS V14.01,2013-05-26 02:44:00,
2013-05-25 22:49:00,47.9,28.1,30.12,South,179,4.9,7.8,46,0.00,,---,0.00,VWS V14.01,2013-05-26 02:49:00,
2013-05-25 22:54:00,47.9,28.1,30.12,NNW,336,3.6,5.4,46,0.00,,---,0.00,VWS V14.01,2013-05-26 02:54:00,
2013-05-25 22:59:00,47.7,28.0,30.12,SE,126,5.4,5.4,46,0.00,,---,0.00,VWS V14.01,2013-05-26 02:59:00,
2013-05-25 23:04:00,47.5,27.8,30.12,North,351,4.9,9.2,46,0.00,,---,0.00,VWS V14.01,2013-05-26 03:04:00,
2013-05-25 23:09:00,47.5,27.8,30.12,West,280,3.6,10.5,46,0.00,,---,0.00,VWS V14.01,2013-05-26 03:09:00,
2013-05-25 23:14:00,47.4,27.6,30.12,WNW,294,0.0,5.8,46,0.00,,---,0.00,VWS V14.01,2013-05-26 03:14:00,
2013-05-25 23:19:00,47.2,27.5,30.12,NW,311,4.5,6.9,46,0.00,,---,0.00,VWS V14.01,2013-05-26 03:19:00,
2013-05-25 23:24:00,47.2,27.5,30.12,NW,319,3.1,6.7,46,0.00,,---,0.00,VWS V14.01,2013-05-26 03:24:00,
2013-05-25 23:29:00,47.2,27.5,30.12,WNW,298,4.0,5.8,46,0.00,,---,0.00,VWS V14.01,2013-05-26 03:29:00,
2013-05-25 23:34:00,47.2,27.5,30.12,WNW,300,7.4,7.8,46,0.00,,---,0.00,VWS V14.01,2013-05-26 03:34:00,
2013-05-25 23:39:00,47.2,27.5,30.12,NNW,342,6.9,11.0,46,0.00,,---,0.00,VWS V14.01,2013-05-26 03:39:00,
2013-05-25 23:44:00,47.2,27.5,30.12,NNW,347,5.4,8.3,46,0.00,,---,0.00,VWS V14.01,2013-05-26 03:44:00,
2013-05-25 23:49:00,47.0,27.3,30.12,NNW,347,8.7,8.7,46,0.00,,---,0.00,VWS V14.01,2013-05-26 03:49:00,
2013-05-25 23:54:00,47.0,27.3,30.12,North,356,6.9,6.9,46,0.00,,---,0.00,VWS V14.01,2013-05-26 03:54:00,
2013-05-25 23:59:00,46.8,27.1,30.12,North,356,4.9,7.4,46,0.00,,---,0.00,VWS V14.01,2013-05-26 03:59:00,